Simultaneous Nadir Overpasses (SNOs) Predictions

Prediction of SNOs between GOES-15 and METOP-C Satellite Orbit:

Table of predicted SNOs for the next 14.0 days since TLE Epoch: 9/7/2022
Index Date Time (GOES-15) GOES-15 Lat,Lon METOP-C Lat,Lon Distance(km) Time Diff (sec)
1 09/07/2022 18:11:50 -0.22,-127.82 0.43,-130.65 323.23 80
2 09/08/2022 17:53:49 -0.21,-127.80 -0.66,-125.65 244.21 80
3 09/10/2022 06:10:10 0.24,-127.70 -0.33,-130.26 291.58 80
4 09/11/2022 05:52:09 0.22,-127.67 0.77,-125.26 275.23 80
5 09/12/2022 18:08:20 -0.25,-127.70 0.23,-129.82 241.73 80
6 09/13/2022 17:50:19 -0.23,-127.68 -0.87,-124.82 325.60 80
7 09/15/2022 06:06:38 0.25,-127.58 -0.18,-129.41 209.89 80
8 09/16/2022 05:48:38 0.23,-127.54 0.91,-124.41 356.47 80
9 09/17/2022 18:04:48 -0.25,-127.56 0.07,-128.98 162.01 80
10 09/18/2022 17:46:48 -0.24,-127.53 -1.03,-123.98 404.62 80
11 09/20/2022 06:03:07 0.26,-127.42 -0.02,-128.57 131.13 80
